1500415200.2,25601,18.06,74614.3,3.99,-4.45,-4.89,0,*7E
1500415201.44,25602,18.06,74618.0,4.01,-4.33,-4.73,0,*7F
1500415202.68,25603,18.06,74618.3,4.01,-4.37,-4.77,0,*7E
1500415203.92,25604,18.06,74614.8,4.01,-4.33,-4.77,0,*7D
1500415205.17,25605,18.06,74612.3,4.01,-4.33,-4.85,0,*71
1500415206.39,25606,18.06,74612.5,3.99,-4.33,-4.77,0,*79
1500415207.63,25607,18.06,74616.0,4.01,-4.45,-4.85,0,*72
1500415208.87,25608,18.06,74612.8,4.01,-4.49,-4.89,0,*7D
1500415210.11,25609,18.06,74614.5,4.01,-4.57,-4.89,0,*73
1500415211.32,25610,18.06,74616.5,4.01,-4.45,-4.99,0,*79
1500415212.57,25611,18.06,74612.5,4.01,-4.33,-4.89,0,*78
1500415213.81,25612,18.06,74618.3,4.01,-4.37,-4.85,0,*73
1500415215.05,25613,18.06,74616.0,4.01,-4.49,-4.89,0,*77
1500415216.3,25614,18.06,74614.5,4.01,-4.57,-5.03,0,*7C
1500415217.55,25615,18.06,74616.5,4.01,-4.57,-5.03,0,*7D
1500415218.8,25616,18.06,74614.3,4.01,-4.21,-4.73,0,*79
1500415220.05,25617,18.06,74612.5,4.01,-4.21,-4.77,0,*7C
1500415221.29,25618,18.06,74616.8,4.01,-4.45,-4.85,0,*7C
1500415222.53,25619,18.06,74616.5,4.01,-4.33,-4.77,0,*71
1500415223.77,25620,18.06,74618.5,4.01,-4.37,-4.77,0,*7F
1500415225.01,25621,18.06,74618.5,4.01,-4.49,-4.85,0,*7A
1500415226.25,25622,18.06,74618.3,4.01,-4.57,-5.11,0,*7A
1500415227.5,25623,18.06,74614.5,4.01,-4.57,-5.11,0,*7B
1500415228.73,25624,18.06,74618.0,3.99,-4.57,-5.03,0,*79
1500415229.94,25625,18.06,74618.0,3.99,-4.45,-4.93,0,*73
1500415231.15,25626,18.06,74616.3,3.99,-4.45,-4.85,0,*77
1500415232.39,25627,18.06,74616.3,3.97,-4.49,-5.03,0,*7B
1500415233.58,25628,18.06,74618.0,3.99,-4.49,-4.99,0,*78
1500415234.79,25629,18.06,74614.5,3.99,-4.45,-4.89,0,*74
1500415236.01,25630,18.06,74618.0,3.99,-4.49,-5.11,0,*70
1500415237.24,25631,18.06,74616.5,3.99,-4.57,-5.03,0,*7D
1500415238.46,25632,18.06,74616.0,3.99,-4.49,-4.89,0,*72
1500415239.67,25633,18.06,74618.8,3.99,-4.49,-4.89,0,*73
1500415240.9,25634,18.06,74614.0,3.99,-4.57,-5.03,0,*78
1500415242.11,25635,18.06,74616.0,3.99,-4.45,-4.89,0,*79
1500415243.34,25636,18.06,74616.8,3.99,-4.33,-4.89,0,*7B
1500415244.56,25637,18.06,74618.5,4.03,-4.21,-4.81,0,*75
1500415245.8,25638,18.06,74616.8,3.97,-4.37,-4.89,0,*7F
1500415246.99,25639,18.06,74618.3,3.99,-4.37,-4.99,0,*71
1500415248.17,25640,18.06,74618.0,3.99,-4.45,-4.99,0,*7A
1500415249.4,25641,18.06,74618.5,3.99,-4.57,-5.03,0,*7A
1500415250.62,25642,18.06,74622.5,3.99,-4.49,-5.03,0,*76
1500415251.86,25643,18.06,74616.3,3.97,-4.49,-5.03,0,*79
1500415253.05,25644,18.06,74616.5,3.99,-4.37,-4.99,0,*7B
1500415254.27,25645,18.06,74618.0,3.99,-4.45,-5.03,0,*7D
1500415255.5,25646,18.06,74618.5,3.99,-4.21,-4.89,0,*7F
1500415256.73,25647,18.06,74618.8,3.99,-4.21,-4.89,0,*7E
1500415257.93,25648,18.06,74618.0,3.99,-3.95,-4.65,0,*7B
1500415259.15,25649,18.06,74618.8,4.01,-3.95,-4.61,0,*78
1500415260.38,25650,18.06,74614.5,4.01,-3.95,-4.57,0,*75
1500415261.65,25651,18.06,74616.8,4.01,-4.01,-4.73,0,*78
1500415262.88,25652,18.06,74616.8,4.01,-3.83,-4.61,0,*75
1500415264.11,25653,18.06,74616.5,4.01,-3.87,-4.57,0,*75
1500415265.33,25654,18.06,74610.5,4.01,-3.87,-4.57,0,*72
1500415266.55,25655,18.06,74612.5,4.03,-3.91,-4.69,0,*7B
1500415267.77,25656,18.06,74612.3,4.03,-3.91,-4.73,0,*73
1500415268.99,25657,18.06,74610.0,4.03,-4.05,-4.81,0,*75
1500415270.27,25658,18.06,74612.3,4.01,-4.01,-4.85,0,*78
1500415271.48,25659,18.06,74616.0,4.03,-4.05,-4.81,0,*7B
1500415272.7,25660,18.06,74614.0,4.03,-4.05,-4.81,0,*71
1500415273.94,25661,18.06,74612.0,4.01,-4.09,-4.89,0,*76
1500415275.2,25662,18.06,74614.5,4.01,-4.21,-5.03,0,*7C
1500415276.45,25663,18.06,74616.8,4.01,-4.21,-5.03,0,*7D
1500415277.67,25664,18.06,74614.8,4.01,-4.25,-4.99,0,*7C
1500415278.92,25665,18.06,74616.8,4.05,-3.87,-4.77,0,*76
1500415280.17,25666,18.06,74614.8,4.01,-3.95,-4.85,0,*7F
1500415281.42,25667,18.06,74612.8,4.01,-3.95,-4.85,0,*7E
1500415282.64,25668,18.0,74610.8,4.03,-3.95,-4.85,0,*73
1500415283.86,25669,18.06,74616.8,4.03,-4.05,-5.07,0,*77
1500415285.07,25670,18.06,74612.3,4.03,-4.09,-5.11,0,*74
1500415286.32,25671,18.06,74616.0,4.01,-3.95,-4.89,0,*75
1500415287.57,25672,18.06,74616.3,4.01,-3.79,-4.73,0,*71
1500415288.82,25673,18.06,74612.0,4.01,-3.87,-4.85,0,*78
1500415290.07,25674,18.06,74612.3,4.01,-3.79,-4.77,0,*73
1500415291.33,25675,18.06,74614.3,4.01,-3.83,-4.85,0,*7A
1500415292.55,25676,18.06,74614.3,4.03,-3.79,-4.73,0,*77
1500415293.77,25677,18.06,74612.0,4.03,-3.83,-4.85,0,*7A
1500415294.99,25678,18.06,74612.8,4.01,-3.95,-4.99,0,*7D
1500415296.22,25679,18.06,74614.5,4.03,-3.95,-5.07,0,*78
1500415297.5,25680,18.06,74612.3,4.01,-4.01,-5.03,0,*72
1500415298.77,25681,18.06,74614.8,4.01,-4.01,-5.11,0,*70
1500415300.02,25682,18.06,74616.3,4.01,-4.01,-4.99,0,*72
1500415301.27,25683,18.06,74618.5,4.01,-3.95,-5.03,0,*7B
1500415302.53,25684,18.06,74612.3,4.01,-3.95,-5.03,0,*7C
1500415303.75,25685,18.06,74618.0,4.01,-3.95,-4.99,0,*7F
1500415305.0,25686,18.06,74616.5,4.05,-3.87,-4.81,0,*72
1500415306.22,25687,18.06,74614.0,4.01,-3.95,-4.99,0,*7D
1500415307.47,25688,18.06,74614.8,4.01,-4.13,-5.03,0,*79
1500415308.72,25689,18.06,74616.0,4.01,-3.95,-5.03,0,*71
1500415309.97,25690,18.06,74614.5,4.01,-4.01,-4.99,0,*71
1500415311.25,25691,18.06,74616.8,4.01,-4.01,-5.03,0,*72
1500415312.49,25692,18.06,74614.8,4.01,-4.13,-5.15,0,*75
1500415313.74,25693,18.06,74616.3,4.01,-4.09,-5.15,0,*7F
1500415314.98,25694,18.06,74618.3,4.01,-4.13,-5.15,0,*73
1500415316.21,25695,18.06,74614.8,3.99,-4.09,-5.03,0,*78
1500415317.41,25696,18.06,74620.3,3.99,-3.95,-4.99,0,*7B
1500415318.63,25697,18.06,74618.3,3.99,-3.95,-4.89,0,*7B
1500415319.86,25698,18.0,74614.3,3.99,-4.01,-4.99,0,*7F
1500415321.11,25699,18.06,74618.3,4.03,-4.01,-4.85,0,*77
1500415322.35,25700,18.06,74618.0,4.01,-4.09,-5.03,0,*73
1500415323.6,25701,18.06,74616.5,4.01,-4.13,-5.03,0,*79
1500415324.82,25702,18.06,74618.5,4.01,-4.09,-4.99,0,*73
1500415326.06,25703,18.06,74618.0,4.01,-3.95,-4.77,0,*70
1500415327.31,25704,18.06,74616.0,4.01,-3.87,-4.77,0,*74
1500415328.53,25705,18.06,74618.5,4.03,-3.83,-4.73,0,*77
1500415329.78,25706,18.06,74618.3,4.01,-3.83,-4.77,0,*72
1500415331.02,25707,18.0,74612.5,4.01,-3.87,-4.77,0,*77
1500415332.27,25708,18.06,74616.5,4.01,-3.95,-4.85,0,*76
1500415333.52,25709,18.06,74618.0,4.01,-3.95,-4.85,0,*77
1500415334.77,25710,18.06,74618.8,4.01,-3.83,-4.73,0,*71
1500415336.0,25711,18.06,74616.3,4.03,-3.79,-4.69,0,*7C
1500415337.19,25712,18.06,74616.3,4.03,-3.87,-4.65,0,*72
1500415338.41,25713,18.06,74616.8,4.03,-3.83,-4.69,0,*7B
1500415339.64,25714,18.06,74618.5,4.03,-3.83,-4.69,0,*7C
1500415340.83,25715,18.0,74612.8,4.03,-3.83,-4.61,0,*75
1500415342.08,25716,18.06,74618.5,4.01,-3.87,-4.77,0,*77
1500415343.3,25717,18.06,74620.3,4.03,-3.91,-4.81,0,*7A
1500415344.52,25718,18.06,74616.0,4.01,-4.21,-4.99,0,*72
1500415345.77,25719,18.06,74618.8,4.05,-4.05,-4.81,0,*78
1500415347.02,25720,18.06,74616.3,4.05,-3.91,-4.81,0,*78
1500415348.24,25721,18.06,74618.8,4.03,-3.91,-4.73,0,*72
1500415349.49,25722,18.06,74618.8,4.05,-3.91,-4.77,0,*73
1500415350.75,25723,18.0,74616.5,4.05,-3.91,-4.69,0,*7D
1500415352.0,25724,18.06,74620.0,4.05,-3.91,-4.77,0,*75
1500415353.22,25725,18.06,74618.3,4.03,-3.91,-4.69,0,*7D
1500415354.44,25726,18.06,74616.5,4.03,-3.95,-4.81,0,*7C
1500415355.68,25727,18.06,74618.5,4.05,-4.05,-4.77,0,*7C
1500415356.96,25728,18.06,74618.5,4.05,-4.01,-4.69,0,*78
1500415358.19,25729,18.06,74618.0,4.07,-3.91,-4.69,0,*75
1500415359.43,25730,18.06,74616.5,4.07,-4.01,-4.77,0,*7C
1500415360.65,25731,18.06,74618.0,4.07,-4.05,-4.77,0,*79
1500415361.86,25732,18.06,74618.8,4.07,-4.13,-4.77,0,*7D
1500415363.08,25733,18.0,74612.8,4.07,-4.13,-4.77,0,*7C
1500415364.32,25734,18.06,74616.3,4.05,-4.17,-4.77,0,*7D
1500415365.54,25735,18.06,74618.5,4.07,-4.17,-4.81,0,*77
1500415366.76,25736,18.06,74618.3,4.07,-4.25,-4.89,0,*7D
1500415368.01,25737,18.06,74616.0,4.05,-4.25,-4.89,0,*7E
1500415369.25,25738,18.06,74614.8,4.05,-4.25,-4.89,0,*71
1500415370.47,25739,18.06,74616.5,4.07,-4.25,-4.77,0,*73
1500415371.72,25740,18.0,74612.0,4.05,-4.41,-4.81,0,*74
1500415372.93,25741,18.06,74618.5,4.07,-4.29,-4.89,0,*71
1500415374.15,25742,18.06,74616.3,4.07,-4.29,-4.89,0,*72
1500415375.4,25743,18.06,74620.3,4.05,-4.29,-4.81,0,*79
1500415376.62,25744,18.06,74614.5,4.07,-4.29,-4.81,0,*7C
1500415377.86,25745,18.06,74616.0,4.05,-4.29,-4.89,0,*77
1500415379.11,25746,18.06,74614.5,4.05,-4.37,-4.89,0,*7B
1500415380.32,25747,18.06,74618.5,4.07,-4.29,-4.89,0,*77
1500415381.54,25748,18.06,74616.5,4.07,-4.53,-5.03,0,*76
1500415382.76,25749,18.06,74616.3,4.07,-4.41,-4.89,0,*77
1500415383.98,25750,18.06,74616.0,4.07,-4.41,-5.03,0,*7C
1500415385.2,25751,18.06,74616.3,4.07,-4.53,-5.03,0,*7E
1500415386.43,25752,18.06,74618.8,4.05,-4.49,-4.93,0,*7C
1500415387.68,25753,18.0,74614.5,4.05,-4.49,-5.03,0,*75
1500415388.92,25754,18.06,74620.0,4.05,-4.53,-5.03,0,*79
1500415390.17,25755,18.06,74616.5,4.05,-4.57,-5.07,0,*78
1500415391.42,25756,18.0,74612.5,4.05,-4.65,-5.07,0,*7A
1500415392.67,25757,18.06,74618.5,4.05,-4.53,-5.03,0,*7A
1500415393.91,25758,18.06,74616.8,4.05,-4.53,-5.07,0,*71
1500415395.16,25759,18.06,74618.0,4.05,-4.53,-5.07,0,*70
1500415396.38,25760,18.06,74620.3,4.07,-4.57,-5.03,0,*78
1500415397.63,25761,18.06,74616.0,4.05,-4.53,-5.03,0,*7F
1500415398.87,25762,18.06,74616.8,4.05,-4.65,-5.15,0,*7E
1500415400.11,25763,18.06,74618.8,4.05,-4.65,-5.15,0,*7F
1500415401.36,25764,18.06,74616.8,4.05,-4.57,-4.93,0,*76
1500415402.61,25765,18.06,74616.8,4.05,-4.65,-5.03,0,*7E
1500415403.85,25766,18.06,74618.3,4.05,-4.65,-5.15,0,*7A
1500415405.1,25767,18.06,74620.5,4.05,-4.57,-5.07,0,*79
1500415406.35,25768,18.0,74616.0,4.05,-4.57,-5.07,0,*76
1500415407.6,25769,18.06,74618.3,4.05,-4.57,-4.93,0,*7B
1500415408.84,25770,18.06,74616.5,4.05,-4.65,-5.07,0,*7E
1500415410.09,25771,18.06,74620.3,4.05,-4.65,-5.15,0,*7C
1500415411.33,25772,18.06,74616.0,4.05,-4.53,-4.93,0,*75
1500415412.57,25773,18.06,74616.8,4.05,-4.65,-5.15,0,*7E
1500415413.82,25774,18.06,74618.3,4.05,-4.65,-5.07,0,*7A
1500415415.08,25775,18.06,74618.3,4.05,-4.69,-5.15,0,*74
1500415416.32,25776,18.06,74618.0,4.03,-4.69,-5.19,0,*7D
1500415417.55,25777,18.06,74616.3,4.01,-4.85,-5.35,0,*72
1500415418.79,25778,18.06,74618.3,4.03,-4.73,-5.23,0,*71
1500415420.03,25779,18.0,74612.0,4.03,-4.81,-5.31,0,*7E
1500415421.26,25780,18.06,74616.8,4.03,-4.81,-5.31,0,*78
1500415422.5,25781,18.06,74616.3,4.03,-4.73,-5.23,0,*77
1500415423.74,25782,18.0,74614.5,4.03,-4.85,-5.31,0,*7E
1500415424.94,25783,18.06,74616.3,4.03,-4.85,-5.35,0,*7B
1500415426.18,25784,18.06,74618.3,4.01,-4.89,-5.35,0,*72
1500415427.39,25785,18.06,74618.3,4.03,-4.81,-5.35,0,*79
1500415428.65,25786,18.06,74616.8,4.01,-4.85,-5.27,0,*7F
1500415429.89,25787,18.06,74616.8,4.03,-4.73,-5.23,0,*71
1500415431.13,25788,18.06,74620.0,4.03,-4.81,-5.19,0,*7A
1500415432.39,25789,18.06,74616.5,4.01,-4.77,-5.23,0,*79
1500415433.63,25790,18.06,74618.3,4.01,-4.85,-5.35,0,*7B
1500415434.86,25791,18.06,74616.5,4.01,-4.85,-5.47,0,*7F
1500415436.07,25792,18.06,74618.0,4.01,-4.99,-5.47,0,*71
1500415437.31,25793,18.06,74616.0,4.01,-4.89,-5.47,0,*71
1500415438.55,25794,18.0,74612.5,4.01,-4.89,-5.39,0,*7F
1500415439.82,25795,18.06,74618.5,4.01,-4.77,-5.27,0,*70
1500415441.06,25796,18.06,74616.3,3.99,-4.77,-5.27,0,*75
1500415442.3,25797,18.06,74616.0,3.97,-4.85,-5.35,0,*74
1500415443.54,25798,18.06,74616.0,3.99,-4.77,-5.27,0,*7B
1500415444.75,25799,18.06,74618.5,3.99,-4.77,-5.35,0,*79
1500415445.99,25800,18.06,74616.0,3.99,-4.77,-5.27,0,*75
1500415447.23,25801,18.06,74618.3,3.99,-4.77,-5.23,0,*70
1500415448.47,25802,18.0,74612.8,3.97,-4.81,-5.39,0,*7F
1500415449.68,25803,18.06,74616.0,3.99,-4.85,-5.35,0,*78
1500415450.94,25804,18.06,74618.0,3.97,-4.81,-5.31,0,*71
1500415452.21,25805,18.06,74616.3,3.97,-4.81,-5.19,0,*7A
1500415453.48,25806,18.0,74614.3,3.97,-4.81,-5.23,0,*70
1500415454.74,25807,18.06,74618.5,3.97,-4.81,-5.19,0,*78
1500415456.01,25808,18.0,74614.3,3.97,-4.81,-5.31,0,*7D
1500415457.25,25809,18.06,74618.3,3.99,-4.77,-5.15,0,*7D
1500415458.51,25810,18.06,74618.3,3.97,-4.69,-5.15,0,*74
1500415459.75,25811,18.06,74616.0,3.99,-4.77,-5.23,0,*71
1500415460.97,25812,18.06,74618.8,3.99,-4.85,-5.35,0,*78
1500415462.18,25813,18.06,74616.3,3.99,-4.89,-5.39,0,*79
1500415463.39,25814,18.06,74618.5,3.99,-4.85,-5.39,0,*72
1500415464.64,25815,18.06,74618.5,3.97,-5.03,-5.43,0,*7F
1500415465.88,25816,18.0,74616.0,3.97,-4.89,-5.39,0,*72
1500415467.12,25817,18.06,74618.0,3.97,-4.89,-5.43,0,*7E
1500415468.36,25818,18.06,74616.8,3.97,-4.93,-5.51,0,*79
1500415469.63,25819,18.06,74616.5,3.97,-4.89,-5.31,0,*75
1500415470.89,25820,18.0,74614.3,3.97,-4.69,-5.07,0,*74
1500415472.08,25821,18.0,74614.3,3.99,-4.61,-4.99,0,*75
1500415473.35,25822,18.0,74614.3,3.97,-4.77,-5.07,0,*79
1500415474.62,25823,18.0,74610.8,3.97,-4.81,-5.23,0,*77
1500415475.89,25824,18.06,74616.3,3.97,-4.89,-5.31,0,*7B
1500415477.13,25825,18.06,74614.8,3.97,-4.81,-5.39,0,*7A
1500415478.37,25826,18.06,74618.5,3.97,-4.89,-5.39,0,*71
1500415479.63,25827,18.06,74616.5,3.97,-4.81,-5.31,0,*70
1500415480.87,25828,18.06,74616.0,3.97,-4.81,-5.39,0,*77
1500415482.1,25829,18.06,74616.3,3.97,-4.93,-5.43,0,*78
1500415483.35,25830,18.06,74618.5,3.97,-4.89,-5.39,0,*76
1500415484.61,25831,18.06,74616.5,3.97,-4.81,-5.31,0,*77
1500415485.88,25832,18.0,74618.0,3.97,-4.81,-5.31,0,*74
1500415487.15,25833,18.06,74618.3,3.97,-4.81,-5.27,0,*72
1500415488.42,25834,18.06,74616.8,3.97,-4.81,-5.27,0,*75
1500415489.68,25835,18.06,74622.3,3.95,-4.89,-5.31,0,*79
1500415490.91,25836,18.0,74616.0,3.95,-4.89,-5.39,0,*72
1500415492.17,25837,18.0,74618.5,3.95,-4.81,-5.31,0,*73
1500415493.4,25838,18.06,74620.0,3.95,-4.81,-5.39,0,*74
1500415494.66,25839,18.06,74622.3,3.95,-4.89,-5.31,0,*75
1500415495.92,25840,18.06,74618.5,3.95,-4.81,-5.31,0,*73
1500415497.15,25841,18.06,74618.3,3.95,-4.89,-5.39,0,*72
1500415498.41,25842,18.06,74616.5,3.95,-4.89,-5.31,0,*79
1500415499.64,25843,18.06,74618.8,3.95,-4.93,-5.39,0,*7B
1500415500.9,25844,18.06,74616.8,3.95,-4.81,-5.19,0,*7D
1500415502.16,25845,18.06,74620.8,3.95,-4.81,-5.31,0,*76
1500415503.42,25846,18.06,74620.5,3.95,-4.89,-5.27,0,*7A
1500415504.65,25847,18.0,74618.3,3.95,-4.93,-5.39,0,*7F
1500415505.89,25848,18.06,74616.5,3.97,-4.61,-5.03,0,*76
1500415507.12,25849,18.0,74616.3,3.95,-4.53,-4.93,0,*7C
1500415508.36,25850,18.06,74620.3,3.93,-4.73,-5.07,0,*7C
1500415509.62,25851,18.06,74616.8,3.95,-4.81,-5.27,0,*74
1500415510.85,25852,18.06,74616.0,3.93,-4.81,-5.31,0,*76
1500415512.11,25853,18.06,74618.5,3.97,-4.77,-5.15,0,*7C
1500415513.38,25854,18.0,74616.8,3.95,-4.81,-5.27,0,*71
1500415514.61,25855,18.06,74616.5,3.93,-4.85,-5.23,0,*76
1500415515.85,25856,18.06,74622.0,3.95,-4.65,-5.03,0,*7F
1500415517.08,25857,18.0,74618.8,3.95,-4.61,-4.93,0,*72
1500415518.32,25858,18.0,74614.5,3.95,-4.61,-5.03,0,*75
1500415519.56,25859,18.06,74614.8,3.95,-4.65,-5.07,0,*74
1500415520.78,25860,18.06,74618.8,3.93,-4.65,-5.07,0,*78
1500415522.02,25861,18.0,74612.8,3.97,-4.61,-5.03,0,*7D
1500415523.29,25862,18.06,74616.3,3.97,-4.69,-5.15,0,*71
1500415524.5,25863,18.0,74616.8,3.99,-4.53,-4.93,0,*78
1500415525.74,25864,18.06,74618.3,3.97,-4.49,-4.81,0,*79
1500415526.98,25865,18.06,74618.3,3.97,-4.53,-4.89,0,*7B
1500415528.23,25866,18.06,74616.8,3.97,-4.65,-5.07,0,*7A
1500415529.49,25867,18.06,74618.8,3.97,-4.69,-5.15,0,*74
1500415530.74,25868,18.0,74612.5,3.99,-4.73,-5.15,0,*7E
1500415531.98,25869,18.06,74618.3,3.99,-4.77,-5.27,0,*7A
1500415533.19,25870,18.06,74618.8,3.99,-4.85,-5.35,0,*7C
1500415534.46,25871,18.0,74612.5,3.97,-4.89,-5.31,0,*7B
1500415535.72,25872,18.0,74612.8,3.97,-4.77,-5.19,0,*73
1500415536.96,25873,18.0,74614.3,3.97,-4.89,-5.39,0,*71
1500415538.18,25874,18.0,74618.3,3.99,-4.89,-5.35,0,*74
1500415539.45,25875,18.06,74620.3,3.97,-5.03,-5.31,0,*7C
1500415540.71,25876,18.0,74616.0,3.97,-4.93,-5.31,0,*77
1500415541.96,25877,18.0,74616.5,3.97,-4.65,-5.07,0,*7A
1500415543.19,25878,18.0,74618.0,3.99,-4.65,-5.03,0,*7F
1500415544.43,25879,18.06,74616.5,3.97,-4.41,-4.81,0,*7D
1500415545.65,25880,18.0,74614.5,3.99,-4.49,-4.85,0,*79
1500415546.84,25881,18.06,74616.8,3.99,-4.57,-4.99,0,*7A
1500415548.07,25882,18.0,74616.8,3.99,-4.57,-4.89,0,*78
1500415549.25,25883,18.0,74616.3,3.99,-4.61,-4.99,0,*7D
1500415550.44,25884,18.0,74612.3,3.99,-4.65,-4.99,0,*7E
1500415551.68,25885,18.0,74610.8,4.01,-4.37,-4.77,0,*7E
1500415552.92,25886,18.0,74614.3,4.01,-4.37,-4.73,0,*79
1500415554.16,25887,18.06,74618.3,4.01,-4.49,-4.85,0,*78
1500415555.37,25888,18.0,74612.3,4.03,-4.29,-4.69,0,*71
1500415556.59,25889,18.06,74616.8,4.03,-4.21,-4.73,0,*73
1500415557.84,25890,18.06,74618.5,4.01,-4.57,-4.85,0,*71
1500415559.08,25891,18.06,74622.0,4.01,-4.65,-5.11,0,*7D
1500415560.3,25892,18.0,74618.3,4.01,-4.65,-4.99,0,*7F
1500415561.52,25893,18.06,74618.5,4.03,-4.57,-4.89,0,*7C
1500415562.76,25894,18.0,74616.0,4.01,-4.61,-4.89,0,*7C
1500415564.0,25895,18.0,74618.3,4.05,-4.53,-4.81,0,*70
1500415565.21,25896,18.0,74616.0,4.03,-4.53,-4.85,0,*71
1500415566.46,25897,18.0,74616.8,4.01,-4.57,-4.85,0,*76
1500415567.71,25898,18.0,74614.3,4.01,-4.61,-5.03,0,*73
1500415568.96,25899,18.06,74620.0,4.05,-4.57,-5.03,0,*73
1500415570.2,25900,18.0,74618.5,4.05,-4.49,-4.81,0,*76
1500415571.44,25901,18.0,74616.5,4.05,-4.41,-4.77,0,*76
1500415572.68,25902,18.06,74616.5,4.05,-4.65,-5.03,0,*71
1500415573.93,25903,18.0,74618.3,4.05,-4.57,-4.93,0,*79
1500415575.17,25904,18.0,74616.0,4.05,-4.49,-4.81,0,*72
1500415576.41,25905,18.06,74616.5,4.05,-4.65,-5.03,0,*76
1500415577.66,25906,18.06,74616.5,4.05,-4.53,-4.89,0,*73
1500415578.9,25907,18.06,74618.3,4.05,-4.65,-4.93,0,*7C
1500415580.14,25908,18.06,74618.5,4.05,-4.65,-5.15,0,*7C
1500415581.41,25909,18.06,74618.0,4.05,-4.89,-5.27,0,*7E
1500415582.68,25910,18.0,74618.8,4.05,-4.69,-5.07,0,*7A
1500415583.93,25911,18.06,74616.8,4.05,-4.57,-5.03,0,*72
1500415585.18,25912,18.06,74616.5,4.05,-4.65,-5.03,0,*70
1500415586.43,25913,18.06,74618.3,4.05,-4.65,-5.07,0,*75
1500415587.67,25914,18.06,74618.8,4.05,-4.65,-5.03,0,*76
1500415588.92,25915,18.0,74616.0,4.05,-4.57,-4.93,0,*7E
1500415590.16,25916,18.0,74616.3,4.05,-4.57,-4.93,0,*7D
1500415591.38,25917,18.06,74620.8,4.07,-4.65,-5.07,0,*73
1500415592.6,25918,18.06,74618.5,4.07,-4.65,-5.03,0,*78
1500415593.85,25919,18.0,74616.5,4.05,-4.65,-5.07,0,*7F
1500415595.11,25920,18.06,74622.5,4.05,-4.77,-5.15,0,*75
1500415596.35,25921,18.0,74618.0,4.05,-4.49,-4.81,0,*75
1500415597.57,25922,18.06,74616.0,4.07,-4.49,-4.81,0,*74
1500415598.78,25923,18.06,74616.8,4.07,-4.41,-4.77,0,*74
1500415600.02,25924,18.0,74614.5,4.05,-4.41,-4.77,0,*71
1500415601.26,25925,18.06,74616.5,4.05,-4.41,-4.77,0,*70
1500415602.47,25926,18.0,74614.5,4.07,-4.41,-4.77,0,*71
1500415603.68,25927,18.06,74618.0,4.07,-4.49,-4.77,0,*78
1500415604.89,25928,18.0,74616.0,4.07,-4.37,-4.69,0,*71
1500415606.1,25929,18.06,74614.5,4.07,-4.37,-4.77,0,*7F
1500415607.34,25930,18.0,74614.5,4.09,-4.37,-4.73,0,*7D
1500415608.57,25931,18.0,74616.0,4.09,-4.45,-4.73,0,*79
1500415609.79,25932,18.0,74614.0,4.11,-4.53,-4.89,0,*71
1500415610.97,25933,18.0,74618.0,4.11,-4.61,-4.99,0,*70
1500415612.19,25934,18.0,74614.8,4.11,-4.61,-5.11,0,*76
1500415613.4,25935,18.0,74618.0,4.09,-4.65,-4.99,0,*7B
1500415614.65,25936,18.0,74612.8,4.09,-4.65,-5.03,0,*7A
1500415615.89,25937,18.0,74614.8,4.09,-4.53,-4.89,0,*7D
1500415617.08,25938,18.06,74618.5,4.11,-4.61,-4.99,0,*7B
1500415618.34,25939,18.06,74616.3,4.09,-4.73,-5.11,0,*71
1500415619.58,25940,18.0,74618.5,4.11,-4.85,-5.23,0,*7E
1500415620.82,25941,18.0,74618.0,4.11,-4.77,-5.27,0,*76
1500415622.09,25942,18.0,74618.5,4.09,-4.85,-5.23,0,*75
1500415623.3,25943,18.0,74618.0,4.11,-4.65,-5.15,0,*76
1500415624.55,25944,18.0,74618.0,4.09,-4.65,-5.03,0,*7F
1500415625.79,25945,18.0,74616.8,4.11,-4.73,-5.11,0,*73
1500415627.04,25946,18.06,74618.5,4.09,-4.65,-5.03,0,*7D
1500415628.25,25947,18.0,74616.0,4.09,-4.65,-4.99,0,*7E
1500415629.49,25948,18.06,74622.0,4.09,-4.61,-4.89,0,*74
1500415630.74,25949,18.0,74618.5,4.09,-4.65,-5.03,0,*72
1500415631.93,25950,18.0,74616.8,4.11,-4.65,-4.99,0,*71
1500415633.17,25951,18.0,74618.5,4.09,-4.65,-5.03,0,*7B
1500415634.42,25952,18.0,74618.0,4.09,-4.61,-5.03,0,*7C
1500415635.63,25953,18.0,74616.3,4.09,-4.61,-4.99,0,*7F
1500415636.85,25954,18.0,74616.5,4.09,-4.61,-4.99,0,*78
1500415638.06,25955,18.0,74616.5,4.09,-4.53,-4.99,0,*78
1500415639.27,25956,18.0,74616.3,4.09,-4.61,-4.99,0,*7A
1500415640.49,25957,18.0,74618.8,4.11,-4.61,-5.03,0,*70
1500415641.68,25958,18.0,74618.0,4.11,-4.61,-4.99,0,*7D
1500415642.86,25959,18.0,74618.3,4.11,-4.61,-4.99,0,*7C
1500415644.07,25960,18.0,74618.8,4.11,-4.73,-4.99,0,*75
1500415645.31,25961,18.0,74618.5,4.11,-4.77,-5.23,0,*70
1500415646.58,25962,18.0,74616.5,4.09,-4.89,-5.27,0,*7F
1500415647.85,25963,18.0,74618.0,4.09,-4.89,-5.27,0,*7E
1500415649.11,25964,18.0,74618.0,4.09,-4.77,-5.15,0,*79
1500415650.3,25965,18.0,74616.5,4.11,-4.65,-4.99,0,*77
1500415651.54,25966,18.0,74616.5,4.09,-4.53,-4.89,0,*79
1500415652.76,25967,18.0,74616.5,4.11,-4.53,-4.89,0,*71
1500415653.97,25968,18.0,74618.0,4.11,-4.37,-4.77,0,*7D
1500415655.17,25969,18.0,74612.8,4.11,-4.49,-4.77,0,*75
1500415656.39,25970,18.0,74616.0,4.11,-4.49,-4.85,0,*70
1500415657.6,25971,18.0,74616.0,4.11,-4.53,-4.89,0,*76
1500415658.82,25972,18.06,74620.5,4.11,-4.53,-4.89,0,*75
1500415660.03,25973,18.0,74612.0,4.11,-4.53,-4.89,0,*74
1500415661.25,25974,18.0,74614.0,4.11,-4.53,-4.89,0,*73
1500415662.43,25975,18.0,74616.0,4.11,-4.61,-4.99,0,*72
1500415663.67,25976,18.0,74614.8,4.11,-4.73,-5.15,0,*77
1500415664.93,25977,18.06,74616.0,4.13,-4.69,-5.11,0,*7B
1500415666.12,25978,18.0,74618.0,4.11,-4.61,-4.99,0,*7F
1500415667.35,25979,18.0,74614.3,4.11,-4.85,-5.11,0,*75
1500415668.62,25980,18.0,74614.0,4.13,-4.81,-5.23,0,*74
1500415669.88,25981,18.0,74616.3,4.13,-4.73,-5.11,0,*79
1500415671.14,25982,18.0,74616.3,4.13,-4.73,-5.19,0,*72
1500415672.4,25983,18.0,74618.0,4.13,-4.81,-5.19,0,*7E
1500415673.67,25984,18.0,74616.8,4.13,-4.85,-5.31,0,*77
1500415674.85,25985,18.0,74616.5,4.11,-4.99,-5.43,0,*7C
1500415676.06,25986,18.0,74612.8,4.11,-4.99,-5.27,0,*7D
1500415677.25,25987,18.0,74614.0,4.11,-4.99,-5.51,0,*7D
1500415678.52,25988,18.0,74616.8,4.09,-4.89,-5.27,0,*7B
1500415679.71,25989,18.0,74616.3,4.11,-4.99,-5.43,0,*70
1500415680.89,25990,18.0,74614.8,4.11,-4.99,-5.43,0,*78
1500415682.12,25991,18.0,74616.3,4.09,-5.11,-5.43,0,*71
1500415683.37,25992,18.0,74618.0,4.09,-5.03,-5.43,0,*71
1500415684.62,25993,18.0,74616.0,4.09,-5.03,-5.51,0,*73
1500415685.84,25994,18.0,74614.8,4.11,-5.03,-5.51,0,*7D
1500415687.08,25995,18.0,74616.3,4.09,-5.03,-5.43,0,*76
1500415688.32,25996,18.0,74616.3,4.09,-4.89,-5.43,0,*76
1500415689.56,25997,18.0,74618.5,4.07,-4.93,-5.31,0,*77
1500415690.83,25998,18.0,74612.8,4.09,-4.89,-5.27,0,*7A
1500415692.09,25999,18.0,74618.8,4.09,-4.77,-5.27,0,*7A
1500415693.33,26000,18.06,74620.5,4.07,-4.81,-5.19,0,*7A
1500415694.59,26001,18.0,74618.5,4.09,-4.77,-5.23,0,*75
1500415695.81,26002,18.0,74614.8,4.09,-4.99,-5.35,0,*71
1500415697.02,26003,18.0,74614.3,4.09,-4.99,-5.51,0,*72
1500415698.27,26004,18.0,74616.0,4.09,-5.03,-5.51,0,*77
1500415699.51,26005,18.0,74614.3,4.09,-5.03,-5.51,0,*76
1500415700.76,26006,18.0,74616.5,4.07,-4.89,-5.31,0,*7E
1500415701.99,26007,18.0,74618.5,4.07,-4.77,-5.15,0,*78
1500415703.23,26008,18.0,74616.3,4.07,-4.77,-5.15,0,*77
1500415704.5,26009,18.0,74616.5,4.09,-4.73,-5.03,0,*7B
1500415705.74,26010,18.0,74616.5,4.09,-4.65,-5.11,0,*77
1500415707.0,26011,18.0,74618.3,4.09,-4.77,-5.15,0,*71
1500415708.27,26012,18.0,74614.0,4.09,-4.77,-5.23,0,*77
1500415709.53,26013,18.0,74618.5,4.09,-4.77,-5.15,0,*73
1500415710.77,26014,18.0,74614.5,4.09,-4.65,-5.03,0,*70
1500415712.02,26015,18.0,74618.0,4.09,-4.65,-5.11,0,*72
1500415713.26,26016,18.0,74618.0,4.09,-4.65,-5.03,0,*72
1500415714.51,26017,18.0,74614.3,4.09,-4.65,-5.03,0,*73
1500415715.73,26018,18.0,74616.5,4.09,-4.61,-4.99,0,*7A
1500415716.96,26019,18.0,74612.8,4.11,-4.73,-5.11,0,*70
1500415718.23,26020,18.0,74618.8,4.09,-4.73,-5.15,0,*77
1500415719.46,26021,18.0,74614.8,4.11,-4.77,-5.15,0,*7B
1500415720.73,26022,18.0,74616.3,4.09,-4.73,-5.11,0,*71
1500415722.0,26023,18.0,74618.3,4.09,-4.73,-5.03,0,*73
1500415723.2,26024,18.0,74618.8,4.09,-4.99,-5.43,0,*74